This is the latest recevied weather packets stored in our database for station/object KC9GSD. If no packets are shown the sender has not sent any weather packets the latest 10 day(s).
| Time | Temp. | Humidity | Pressure | Rain* | Wind** | Luminosity | Snow |
|---|---|---|---|---|---|---|---|
| 1777568457 | 18.33° C | 62% | 1013.8 hPa | 0 mm | - | 489 W/m² | - |
| 1777568154 | 17.78° C | 62% | 1013.9 hPa | 0 mm | - | 559 W/m² | - |
| 1777567851 | 17.78° C | 63% | 1014.1 hPa | 0 mm | - | 485 W/m² | - |
| 1777567547 | 17.78° C | 64% | 1014.1 hPa | 0 mm | - | 437 W/m² | - |
| 1777567244 | 17.78° C | 65% | 1014.1 hPa | 0 mm | - | 433 W/m² | - |
| 1777566943 | 17.78° C | 64% | 1014.3 hPa | 0 mm | - | 563 W/m² | - |
| 1777566640 | 18.33° C | 62% | 1014.1 hPa | 0 mm | - | 659 W/m² | - |
| 1777566338 | 17.78° C | 66% | 1014.3 hPa | 0 mm | - | 804 W/m² | - |
| 1777566035 | 17.78° C | 66% | 1014.1 hPa | 0 mm | - | 769 W/m² | - |
| 1777565730 | 17.78° C | 66% | 1014.2 hPa | 0 mm | - | 676 W/m² | - |
| 1777565427 | 18.33° C | 65% | 1014.2 hPa | 0 mm | - | 774 W/m² | - |
| 1777565123 | 17.78° C | 69% | 1014 hPa | 0 mm | - | 787 W/m² | - |
| 1777564820 | 17.78° C | 65% | 1014 hPa | 0 mm | - | 741 W/m² | - |
| 1777564515 | 17.22° C | 71% | 1014.2 hPa | 0 mm | - | 735 W/m² | - |
| 1777564210 | 16.67° C | 74% | 1014.1 hPa | 0 mm | - | 608 W/m² | - |
| 1777563906 | 16.67° C | 71% | 1014.1 hPa | 0 mm | - | 561 W/m² | - |
| 1777563603 | 16.67° C | 71% | 1014.1 hPa | 0 mm | - | 513 W/m² | - |
| 1777563302 | 17.22° C | 73% | 1014.1 hPa | 0 mm | - | 484 W/m² | - |
| 1777562999 | 16.67° C | 74% | 1014.2 hPa | 0 mm | - | 692 W/m² | - |
| 1777562695 | 16.67° C | 71% | 1014.1 hPa | 0 mm | - | 601 W/m² | - |
| 1777562394 | 16.67° C | 69% | 1014 hPa | 0 mm | - | 580 W/m² | - |
| 1777562090 | 16.67° C | 68% | 1014 hPa | 0 mm | - | 490 W/m² | - |
| 1777561788 | 16.11° C | 72% | 1013.7 hPa | 0 mm | - | 575 W/m² | - |
| 1777561483 | 16.11° C | 70% | 1013.7 hPa | 0 mm | - | 586 W/m² | - |
| 1777561179 | 15.56° C | 74% | 1013.8 hPa | 0 mm | - | 428 W/m² | - |
* Rain latest hour (hover to see other rain measurements)
** Current wind speed in m/s (hover to see current wind gust speed)